This is the latest recevied weather packets stored in our database for station/object KC0UFP. If no packets are shown the sender has not sent any weather packets the latest 10 day(s).
| Time | Temp. | Humidity | Pressure | Rain* | Wind** | Luminosity | Snow |
|---|---|---|---|---|---|---|---|
| 1777923966 | 26.11° C | 37% | 1009 hPa | 0 mm | - | 908 W/m² | - |
| 1777923661 | 26.11° C | 38% | 1009 hPa | 0 mm | - | 926 W/m² | - |
| 1777923358 | 26.67° C | 37% | 1009.2 hPa | 0 mm | - | 932 W/m² | - |
| 1777923057 | 26.67° C | 38% | 1009.2 hPa | 0 mm | - | 942 W/m² | - |
| 1777922755 | 26.11° C | 37% | 1009.2 hPa | 0 mm | - | 954 W/m² | - |
| 1777922452 | 26.11° C | 38% | 1009.1 hPa | 0 mm | - | 957 W/m² | - |
| 1777922150 | 26.67° C | 37% | 1009.2 hPa | 0 mm | - | 964 W/m² | - |
| 1777921846 | 26.11° C | 36% | 1009.2 hPa | 0 mm | - | 966 W/m² | - |
| 1777921543 | 26.11° C | 38% | 1009.2 hPa | 0 mm | - | 977 W/m² | - |
| 1777921239 | 26.11° C | 36% | 1009.4 hPa | 0 mm | - | 929 W/m² | - |
| 1777920936 | 25.56° C | 38% | 1009.6 hPa | 0 mm | - | 978 W/m² | - |
| 1777920632 | 26.11° C | 39% | 1009.6 hPa | 0 mm | - | 990 W/m² | - |
| 1777920328 | 26.11° C | 37% | 1009.5 hPa | 0 mm | - | 996 W/m² | - |
| 1777920023 | 26.11° C | 38% | 1009.6 hPa | 0 mm | - | 991 W/m² | - |
| 1777919721 | 26.11° C | 38% | 1009.6 hPa | 0 mm | - | 1006 W/m² | - |
| 1777919419 | 26.11° C | 38% | 1009.8 hPa | 0 mm | - | 1007 W/m² | - |
| 1777919115 | 26.11° C | 38% | 1009.8 hPa | 0 mm | - | 1004 W/m² | - |
| 1777918813 | 26.11° C | 39% | 1010 hPa | 0 mm | - | 1009 W/m² | - |
| 1777918510 | 26.11° C | 36% | 1009.9 hPa | 0 mm | - | 1021 W/m² | - |
| 1777918208 | 26.11° C | 36% | 1010 hPa | 0 mm | - | 1018 W/m² | - |
| 1777917907 | 25.56° C | 39% | 1010.3 hPa | 0 mm | - | 1012 W/m² | - |
| 1777917605 | 25.56° C | 39% | 1010.2 hPa | 0 mm | - | 1016 W/m² | - |
| 1777917302 | 25.56° C | 38% | 1010.1 hPa | 0 mm | - | 1019 W/m² | - |
| 1777916999 | 25.56° C | 40% | 1010.1 hPa | 0 mm | - | 1016 W/m² | - |
| 1777916697 | 25.56° C | 38% | 1010.4 hPa | 0 mm | - | 1020 W/m² | - |
* Rain latest hour (hover to see other rain measurements)
** Current wind speed in m/s (hover to see current wind gust speed)